Date String (YYYY-MM-DD hh:mm:ss) UTC,Instrument flags,absolute air pressure of the measurement (hPa),sample flow rate (lpm),inlet stack bypass flow (lpm),air temperature of the measurement (°C),ambient temperature measured by the external sensor (°C),aerosol sample conditioner tube jacket temperature (°C),OPC LED temperature (°C),internal box temperature (°C),relative humidity of the measurement (%),span deviation,mass concentration of particles derived from Lorenz-Mie calculation of OPC scattering (μg/m³),mass concentration of particles derived from Lorenz-Mie calculation of OPC scattering (μg/m³),mass concentration of particles derived from Lorenz-Mie calculation of OPC scattering (μg/m³)
DateTimeUTC,F1_M11,P_M11,Q1_M11,Q2_M11,T1_M11,T2_M11,T3_M11,T4_M11,T5_M11,U1_M11,ZSPAN_M11,X0_M11,X2_M11,X1_M11
2023-07-12 01:00:00,SystemResetWarning,0829.4,5.01,000.00,028.7,024.9,000.0,036.8,030.1,24.5,0000.0,0017.72,0005.35,0003.97
2023-07-12 01:01:00,SystemResetWarning,0829.4,4.99,000.00,028.6,025.3,000.0,036.9,030.0,24.3,0000.0,0018.37,0005.38,0003.97
2023-07-12 01:02:00,SystemResetWarning,0829.4,5.00,000.00,028.6,025.7,000.0,036.9,030.1,25.0,0000.0,0019.30,0005.34,0003.96
2023-07-12 01:03:00,SystemResetWarning,0829.5,5.01,000.00,028.6,026.2,000.0,036.9,030.2,24.5,0000.0,0018.98,0005.33,0003.97
2023-07-12 01:04:00,SystemResetWarning,0829.5,4.99,000.00,028.7,026.7,000.0,037.0,030.4,24.0,0000.0,0019.99,0005.38,0003.97
2023-07-12 01:05:00,SystemResetWarning,0829.5,5.00,000.00,028.7,027.1,000.0,037.0,030.5,24.2,0000.0,0019.76,0005.42,0003.97
2023-07-12 01:06:00,SystemResetWarning,0829.5,4.99,000.00,028.8,027.1,000.0,037.0,030.5,24.0,0000.0,0020.20,0005.45,0003.98
2023-07-12 01:07:00,SystemResetWarning,0829.5,4.98,000.00,028.8,025.7,000.0,036.9,030.2,24.1,0000.0,0020.34,0005.45,0003.98
2023-07-12 01:08:00,SystemResetWarning,0829.4,5.02,000.00,028.7,024.7,000.0,036.8,030.0,24.5,0000.0,0020.02,0005.46,0003.99
2023-07-12 01:09:00,SystemResetWarning,0829.5,5.01,000.00,028.6,025.0,000.0,036.8,030.0,24.9,0000.0,0019.72,0005.46,0003.99
2023-07-12 01:10:00,SystemResetWarning,0829.5,4.99,000.00,028.6,025.4,000.0,036.9,030.0,26.0,0000.0,0019.86,0005.46,0004.00
2023-07-12 01:11:00,SystemResetWarning,0829.5,5.00,000.00,028.6,025.9,000.0,036.9,030.1,26.6,0000.0,0020.61,0005.47,0004.02
2023-07-12 01:12:00,SystemResetWarning,0829.6,5.01,000.00,028.6,026.4,000.0,036.9,030.2,26.3,0000.0,0020.26,0005.49,0004.03
2023-07-12 01:13:00,SystemResetWarning,0829.6,5.00,000.00,028.7,026.8,000.0,036.9,030.4,27.3,0000.0,0019.82,0005.46,0004.03
2023-07-12 01:14:00,SystemResetWarning,0829.6,5.00,000.00,028.7,027.2,000.0,037.0,030.5,27.7,0000.0,0020.34,0005.49,0004.03
2023-07-12 01:15:00,SystemResetWarning,0829.6,4.99,000.00,028.8,027.3,000.0,037.0,030.5,26.5,0000.0,0019.42,0005.45,0004.04
2023-07-12 01:16:00,SystemResetWarning,0829.6,4.99,000.00,028.8,025.8,000.0,036.9,030.3,25.1,0000.0,0019.01,0005.49,0004.05
2023-07-12 01:17:00,SystemResetWarning,0829.6,5.01,000.00,028.7,024.7,000.0,036.8,030.1,26.0,0000.0,0019.80,0005.49,0004.06
2023-07-12 01:18:00,SystemResetWarning,0829.6,5.02,000.00,028.6,025.0,000.0,036.8,030.0,25.8,0000.0,0019.80,0005.51,0004.07
2023-07-12 01:19:00,SystemResetWarning,0829.6,4.99,000.00,028.6,025.4,000.0,036.8,030.0,27.1,0000.0,0019.77,0005.56,0004.07
2023-07-12 01:20:00,SystemResetWarning,0829.6,5.00,000.00,028.6,025.9,000.0,036.9,030.1,25.8,0000.0,0020.31,0005.55,0004.08
2023-07-12 01:21:00,SystemResetWarning,0829.7,5.00,000.00,028.6,026.4,000.0,036.9,030.3,25.3,0000.0,0020.46,0005.59,0004.08
2023-07-12 01:22:00,SystemResetWarning,0829.7,5.00,000.00,028.7,026.8,000.0,036.9,030.4,25.2,0000.0,0019.27,0005.65,0004.07
2023-07-12 01:23:00,SystemResetWarning,0829.7,5.00,000.00,028.7,027.2,000.0,036.9,030.5,24.9,0000.0,0019.17,0005.66,0004.07
2023-07-12 01:24:00,SystemResetWarning,0829.7,5.00,000.00,028.8,027.5,000.0,037.0,030.6,24.6,0000.0,0019.44,0005.66,0004.07
2023-07-12 01:25:00,SystemResetWarning,0829.7,4.99,000.00,028.8,027.0,000.0,036.9,030.6,24.8,0000.0,0019.56,0005.72,0004.09
2023-07-12 01:26:00,SystemResetWarning,0829.7,4.99,000.00,028.8,025.4,000.0,036.9,030.3,24.4,0000.0,0020.00,0005.75,0004.10
2023-07-12 01:27:00,SystemResetWarning,0829.7,5.01,000.00,028.7,024.9,000.0,036.8,030.1,24.3,0000.0,0020.36,0005.73,0004.10
2023-07-12 01:28:00,SystemResetWarning,0829.6,5.01,000.00,028.6,025.2,000.0,036.8,030.0,25.2,0000.0,0019.48,0005.71,0004.10
2023-07-12 01:29:00,SystemResetWarning,0829.7,4.99,000.00,028.6,025.6,000.0,036.9,030.1,25.7,0000.0,0018.65,0005.71,0004.10
2023-07-12 01:30:00,SystemResetWarning,0829.7,5.00,000.00,028.6,026.1,000.0,036.9,030.2,25.4,0000.0,0019.05,0005.69,0004.11
2023-07-12 01:31:00,SystemResetWarning,0829.7,5.00,000.00,028.7,026.6,000.0,036.9,030.3,24.9,0000.0,0019.19,0005.72,0004.13
2023-07-12 01:32:00,SystemResetWarning,0829.7,5.00,000.00,028.7,027.0,000.0,037.0,030.4,25.2,0000.0,0018.75,0005.70,0004.13
2023-07-12 01:33:00,SystemResetWarning,0829.7,5.00,000.00,028.8,027.3,000.0,037.0,030.5,24.9,0000.0,0018.90,0005.67,0004.14
2023-07-12 01:34:00,SystemResetWarning,0829.7,4.99,000.00,028.8,026.9,000.0,037.0,030.5,24.0,0000.0,0018.98,0005.65,0004.15
2023-07-12 01:35:00,SystemResetWarning,0829.7,4.99,000.00,028.8,025.2,000.0,036.9,030.3,23.4,0000.0,0019.18,0005.67,0004.14
2023-07-12 01:36:00,SystemResetWarning,0829.7,5.02,000.00,028.7,024.7,000.0,036.8,030.1,23.9,0000.0,0018.30,0005.63,0004.15
2023-07-12 01:37:00,SystemResetWarning,0829.7,5.00,000.00,028.6,025.0,000.0,036.8,030.0,23.6,0000.0,0017.34,0005.60,0004.15
2023-07-12 01:38:00,SystemResetWarning,0829.7,5.00,000.00,028.6,025.5,000.0,036.9,030.0,23.7,0000.0,0017.07,0005.67,0004.16
2023-07-12 01:39:00,SystemResetWarning,0829.7,5.00,000.00,028.6,026.0,000.0,036.9,030.2,24.5,0000.0,0017.62,0005.69,0004.17
2023-07-12 01:40:00,SystemResetWarning,0829.7,5.00,000.00,028.6,026.5,000.0,036.9,030.3,24.8,0000.0,0017.85,0005.76,0004.18
2023-07-12 01:41:00,SystemResetWarning,0829.8,4.99,000.00,028.7,026.9,000.0,037.0,030.4,24.4,0000.0,0018.37,0005.78,0004.19
2023-07-12 01:42:00,SystemResetWarning,0829.8,5.00,000.00,028.7,027.3,000.0,037.0,030.5,23.5,0000.0,0018.54,0005.76,0004.17
2023-07-12 01:43:00,SystemResetWarning,0829.8,5.00,000.00,028.8,027.5,000.0,037.0,030.6,23.6,0000.0,0019.28,0005.77,0004.17
2023-07-12 01:44:00,SystemResetWarning,0829.8,4.99,000.00,028.8,026.3,000.0,037.0,030.4,23.7,0000.0,0019.30,0005.74,0004.17
2023-07-12 01:45:00,SystemResetWarning,0829.8,5.00,000.00,028.7,024.8,000.0,036.9,030.2,23.9,0000.0,0018.88,0005.79,0004.18
2023-07-12 01:46:00,SystemResetWarning,0829.8,5.01,000.00,028.7,024.8,000.0,036.8,030.1,23.8,0000.0,0018.81,0005.79,0004.20
2023-07-12 01:47:00,SystemResetWarning,0829.8,5.01,000.00,028.6,025.2,000.0,036.9,030.0,23.9,0000.0,0019.11,0005.80,0004.19
2023-07-12 01:48:00,SystemResetWarning,0829.8,5.00,000.00,028.6,025.7,000.0,036.9,030.1,24.1,0000.0,0019.19,0005.79,0004.17
2023-07-12 01:49:00,SystemResetWarning,0829.8,5.00,000.00,028.6,026.2,000.0,036.9,030.2,24.1,0000.0,0019.26,0005.72,0004.17
2023-07-12 01:50:00,SystemResetWarning,0829.8,5.00,000.00,028.7,026.6,000.0,036.9,030.3,24.3,0000.0,0017.84,0005.67,0004.16
2023-07-12 01:51:00,SystemResetWarning,0829.8,5.00,000.00,028.7,027.0,000.0,037.0,030.4,24.2,0000.0,0018.38,0005.57,0004.13
2023-07-12 01:52:00,SystemResetWarning,0829.9,4.99,000.00,028.8,027.4,000.0,037.0,030.5,23.9,0000.0,0019.34,0005.56,0004.13
2023-07-12 01:53:00,SystemResetWarning,0829.9,4.98,000.00,028.8,027.3,000.0,037.0,030.6,23.7,0000.0,0019.35,0005.56,0004.13
2023-07-12 01:54:00,SystemResetWarning,0829.9,5.00,000.00,028.8,025.7,000.0,036.9,030.3,23.7,0000.0,0018.73,0005.57,0004.14
2023-07-12 01:55:00,SystemResetWarning,0829.8,5.00,000.00,028.7,024.7,000.0,036.9,030.1,23.6,0000.0,0018.42,0005.58,0004.15
2023-07-12 01:56:00,SystemResetWarning,0829.8,5.01,000.00,028.6,024.9,000.0,036.8,030.0,24.2,0000.0,0017.79,0005.53,0004.14
2023-07-12 01:57:00,SystemResetWarning,0829.8,5.01,000.00,028.6,025.3,000.0,036.9,030.0,24.1,0000.0,0018.36,0005.53,0004.13
2023-07-12 01:58:00,SystemResetWarning,0829.8,5.00,000.00,028.6,025.8,000.0,036.9,030.1,24.1,0000.0,0019.11,0005.57,0004.13
2023-07-12 01:59:00,SystemResetWarning,0829.8,5.01,000.00,028.6,026.3,000.0,036.9,030.3,24.0,0000.0,0019.45,0005.57,0004.13
